FW9386 Weather Reports


time (UTC)temp
C
wind
direction
speed
KPH
gust
KPH
rain 1hr
cm
rain 24hr
cm
rain mn
cm
humidity
%
barometer
mb
20260505084056 22 218 3.2 12.9 0.00 0.00 0.00 84 1009.9
20260505083554 22 197 4.8 12.9 0.00 0.00 0.00 85 1009.9
20260505083100 22 70 1.6 8.0 0.00 0.00 0.00 85 1009.9
20260505082554 22 176 1.6 8.0 0.00 0.00 0.00 86 1009.8
20260505082055 22 237 1.6 9.7 0.00 0.00 0.00 86 1010.0
20260505081556 22 145 1.6 9.7 0.00 0.00 0.00 85 1010.0
20260505081058 22 190 1.6 9.7 0.00 0.00 0.00 86 1010.1
20260505080556 22 135 1.6 8.0 0.00 0.00 0.00 85 1010.2
20260505080055 22 214 0.0 8.0 0.00 0.00 0.00 85 1010.2
20260505075554 22 140 1.6 8.0 0.00 0.00 0.00 85 1010.2
20260505075054 21 197 1.6 8.0 0.00 0.00 0.00 86 1010.3
20260505074553 21 144 3.2 9.7 0.00 0.00 0.00 86 1010.2
20260505074054 21 109 1.6 9.7 0.00 0.00 0.00 86 1010.3
20260505073554 21 132 1.6 9.7 0.00 0.00 0.00 86 1010.1
20260505073058 21 163 1.6 8.0 0.00 0.00 0.00 86 1010.2
20260505072558 21 98 1.6 8.0 0.00 0.00 0.00 85 1010.2
20260505072054 21 118 3.2 8.0 0.00 0.00 0.00 85 1010.0
20260505071556 21 124 1.6 6.4 0.00 0.00 0.00 85 1010.3
20260505071055 21 135 3.2 6.4 0.00 0.00 0.00 84 1010.4
20260505070555 21 152 1.6 9.7 0.00 0.00 0.00 84 1010.6
20260505070054 21 145 3.2 9.7 0.00 0.00 0.00 84 1010.6
20260505065555 21 157 3.2 8.0 0.00 0.00 0.00 84 1010.7
20260505065054 21 194 1.6 8.0 0.00 0.00 0.00 84 1010.6
20260505064554 21 147 1.6 9.7 0.00 0.00 0.00 84 1010.7
20260505064054 21 211 3.2 9.7 0.00 0.00 0.00 84 1010.8
20260505063556 21 115 3.2 9.7 0.00 0.00 0.00 83 1010.8
20260505063055 21 109 3.2 6.4 0.00 0.00 0.00 83 1010.8
20260505062554 21 180 1.6 8.0 0.00 0.00 0.00 84 1011.0
20260505062053 21 109 3.2 8.0 0.00 0.00 0.00 83 1011.3
20260505061557 21 109 3.2 9.7 0.00 0.00 0.00 83 1011.2
20260505061054 21 147 1.6 9.7 0.00 0.00 0.00 83 1011.1
20260505060554 21 144 1.6 8.0 0.00 0.00 0.00 83 1011.1
20260505060059 21 174 3.2 8.0 0.00 0.00 0.00 83 1011.0
20260505055554 21 184 3.2 9.7 0.00 0.00 0.00 83 1010.9
20260505055055 21 116 3.2 9.7 0.00 0.00 0.00 83 1011.0
20260505054554 21 155 1.6 6.4 0.00 0.00 0.00 83 1011.2
20260505054054 21 155 1.6 6.4 0.00 0.00 0.00 83 1011.2
20260505053555 21 151 3.2 9.7 0.00 0.00 0.00 82 1011.3
20260505053108 21 145 3.2 9.7 0.00 0.00 0.00 82 1011.2
20260505052557 21 138 4.8 9.7 0.00 0.00 0.00 82 1011.1
20260505052054 21 115 3.2 9.7 0.00 0.00 0.00 82 1011.2
20260505051558 21 126 3.2 12.9 0.00 0.00 0.00 82 1011.3
20260505051055 21 118 3.2 12.9 0.00 0.00 0.00 82 1011.3
20260505050554 21 150 3.2 12.9 0.00 0.00 0.00 82 1011.4
20260505041554 21 112 1.6 6.4 0.00 0.00 0.00 82 1011.8
20260505041054 21 131 3.2 8.0 0.00 0.00 0.00 81 1011.7
20260505040557 21 173 3.2 8.0 0.00 0.00 0.00 81 1011.9
20260505040056 21 117 3.2 8.0 0.00 0.00 0.00 81 1012.0
20260505035554 21 119 3.2 8.0 0.00 0.00 0.00 81 1012.0
20260505035054 21 171 3.2 8.0 0.00 0.00 0.00 81 1012.1
20260505034556 21 147 1.6 8.0 0.00 0.00 0.00 82 1012.0
20260505034054 21 109 3.2 8.0 0.00 0.00 0.00 81 1012.0
20260505033554 21 160 3.2 9.7 0.00 0.00 0.00 81 1011.8
20260505033112 21 133 3.2 9.7 0.00 0.00 0.00 81 1011.7
20260505032554 21 139 3.2 8.0 0.00 0.00 0.00 81 1011.8
20260505032054 21 133 3.2 8.0 0.00 0.00 0.00 81 1011.8
20260505031556 21 173 3.2 8.0 0.00 0.00 0.00 81 1011.8
20260505031058 21 119 3.2 8.0 0.00 0.00 0.00 81 1011.9
20260505030557 21 142 3.2 8.0 0.00 0.00 0.00 80 1012.0
20260505030053 21 114 3.2 9.7 0.00 0.00 0.00 80 1011.9
20260505025554 21 107 3.2 9.7 0.00 0.00 0.00 80 1012.0
20260505025054 21 147 3.2 8.0 0.00 0.00 0.00 80 1012.1
20260505024601 21 154 3.2 11.3 0.00 0.00 0.00 81 1012.1
20260505024054 21 115 3.2 11.3 0.00 0.00 0.00 80 1012.1
20260505023554 21 140 3.2 9.7 0.00 0.00 0.00 80 1011.8
20260505023104 21 129 3.2 9.7 0.00 0.00 0.00 80 1011.9
20260505022554 21 141 1.6 6.4 0.00 0.00 0.00 81 1011.9
20260505022057 21 112 3.2 6.4 0.00 0.00 0.00 81 1011.8
20260505021556 21 157 1.6 6.4 0.00 0.00 0.00 81 1011.8
20260505021054 21 111 3.2 6.4 0.00 0.00 0.00 81 1011.7
20260505020554 21 155 1.6 6.4 0.00 0.00 0.00 81 1011.6
20260505020054 21 127 1.6 6.4 0.00 0.00 0.00 81 1011.6
20260505015555 21 138 1.6 3.2 0.00 0.00 0.00 81 1011.8
20260505015056 21 104 1.6 6.4 0.00 0.00 0.00 81 1011.6
20260505014555 21 166 1.6 6.4 0.00 0.00 0.00 80 1011.5
20260505014055 21 159 1.6 6.4 0.00 0.00 0.00 80 1011.5
20260505013554 21 114 1.6 3.2 0.00 0.00 0.00 80 1011.4
20260505013056 21 126 1.6 3.2 0.00 0.00 0.00 79 1011.6
20260505012554 21 123 1.6 4.8 0.00 0.00 0.00 79 1011.5
20260505012054 21 106 1.6 6.4 0.00 0.00 0.00 78 1011.4
20260505011559 21 121 1.6 6.4 0.00 0.00 0.00 78 1011.3
20260505011055 21 211 1.6 6.4 0.00 0.00 0.00 77 1011.3
20260505010555 21 143 1.6 8.0 0.00 0.00 0.00 76 1011.5
20260505010058 22 210 3.2 8.0 0.00 0.00 0.00 76 1011.5
20260505005555 22 152 3.2 8.0 0.00 0.00 0.00 75 1011.6
20260505005055 22 115 1.6 8.0 0.00 0.00 0.00 74 1011.8
20260505004559 22 115 3.2 8.0 0.00 0.00 0.00 74 1011.7
20260505004057 22 159 1.6 4.8 0.00 0.00 0.00 74 1011.6
20260505003557 22 176 0.0 8.0 0.00 0.00 0.00 73 1011.7
20260505003054 22 114 3.2 8.0 0.00 0.00 0.00 73 1011.7
20260505002554 22 150 3.2 9.7 0.00 0.00 0.00 72 1011.6
20260505002054 22 106 3.2 11.3 0.00 0.00 0.00 72 1011.6
20260505001556 22 119 3.2 12.9 0.00 0.00 0.00 71 1011.6
20260505001056 23 140 4.8 12.9 0.00 0.00 0.00 71 1011.6
20260505000558 23 193 4.8 12.9 0.00 0.00 0.00 70 1011.8
20260505000100 23 204 3.2 11.3 0.00 0.00 0.00 71 1011.7
20260504235555 23 106 4.8 12.9 0.00 0.00 0.00 70 1011.9
20260504235057 23 190 3.2 12.9 0.00 0.00 0.00 69 1012.0
20260504234616 23 228 4.8 12.9 0.00 0.00 0.00 68 1012.1
20260504234054 23 166 3.2 11.3 0.00 0.00 0.00 68 1012.2
20260504233554 23 123 4.8 12.9 0.00 0.00 0.00 67 1012.2
20260504233057 23 149 3.2 12.9 0.00 0.00 0.00 67 1012.2
20260504232556 23 142 6.4 16.1 0.00 0.00 0.00 67 1012.1
20260504232054 24 137 6.4 16.1 0.00 0.00 0.00 66 1012.2
20260504231601 23 126 3.2 16.1 0.00 0.00 0.00 66 1012.3
20260504231054 23 180 4.8 12.9 0.00 0.00 0.00 66 1012.4
20260504230557 24 193 6.4 12.9 0.00 0.00 0.00 64 1012.3
20260504230053 24 165 6.4 12.9 0.00 0.00 0.00 65 1012.3
20260504225555 24 178 4.8 12.9 0.00 0.00 0.00 66 1012.3
20260504225057 24 142 4.8 14.5 0.00 0.00 0.00 65 1012.4
20260504224604 24 143 4.8 14.5 0.00 0.00 0.00 64 1012.5
20260504224056 24 93 3.2 11.3 0.00 0.00 0.00 63 1012.5
20260504223555 25 205 4.8 11.3 0.00 0.00 0.00 63 1012.6
20260504223054 25 270 4.8 14.5 0.00 0.00 0.00 63 1012.6
20260504222555 24 107 3.2 14.5 0.00 0.00 0.00 65 1012.6
20260504222054 24 95 4.8 14.5 0.00 0.00 0.00 64 1012.7
20260504221605 25 114 4.8 12.9 0.00 0.00 0.00 62 1012.7
20260504221054 25 266 4.8 12.9 0.00 0.00 0.00 62 1012.7
20260504220555 25 170 3.2 12.9 0.00 0.00 0.00 63 1012.7
20260504220057 25 148 4.8 12.9 0.00 0.00 0.00 63 1012.7
20260504215556 25 154 4.8 14.5 0.00 0.00 0.00 63 1012.8
20260504215055 25 119 4.8 14.5 0.00 0.00 0.00 63 1012.8
20260504214602 25 119 4.8 11.3 0.00 0.00 0.00 62 1013.0
20260504214054 25 116 3.2 16.1 0.00 0.00 0.00 63 1013.0
20260504213554 25 304 6.4 16.1 0.00 0.00 0.00 63 1013.1
20260504213105 25 147 4.8 14.5 0.00 0.00 0.00 64 1013.2
20260504212554 25 241 4.8 12.9 0.00 0.00 0.00 62 1013.2
20260504212056 25 215 3.2 16.1 0.00 0.00 0.00 62 1013.2
20260504211554 25 167 4.8 16.1 0.00 0.00 0.00 59 1013.3
20260504211054 25 188 4.8 16.1 0.00 0.00 0.00 62 1013.5
20260504210555 25 102 3.2 17.7 0.00 0.00 0.00 62 1013.5
20260504210106 25 144 4.8 17.7 0.00 0.00 0.00 60 1013.5
20260504205558 26 140 4.8 17.7 0.00 0.00 0.00 62 1013.6
20260504205058 25 116 6.4 16.1 0.00 0.00 0.00 62 1013.7
20260504204634 25 121 4.8 12.9 0.00 0.00 0.00 62 1013.6
20260504204054 25 170 6.4 12.9 0.00 0.00 0.00 62 1013.6
20260504203554 25 159 4.8 12.9 0.00 0.00 0.00 62 1013.7
20260504203055 25 98 6.4 16.1 0.00 0.00 0.00 62 1013.8
20260504202553 25 160 3.2 16.1 0.00 0.00 0.00 62 1013.8
20260504202055 25 167 4.8 16.1 0.00 0.00 0.00 62 1013.8
20260504201555 25 100 6.4 16.1 0.00 0.00 0.00 62 1013.8
20260504201054 25 192 6.4 20.9 0.00 0.00 0.00 61 1014.1
20260504200555 25 177 6.4 20.9 0.00 0.00 0.00 62 1014.2
20260504195553 25 204 4.8 14.5 0.00 0.00 0.00 61 1014.5
20260504195058 26 188 4.8 16.1 0.00 0.00 0.00 62 1014.6
20260504194555 25 191 8.0 16.1 0.00 0.00 0.00 60 1014.7
20260504194055 25 114 8.0 14.5 0.00 0.00 0.00 61 1014.8
20260504193558 25 192 4.8 14.5 0.00 0.00 0.00 60 1014.8
20260504193053 25 135 6.4 14.5 0.00 0.00 0.00 60 1014.9
20260504192554 25 193 4.8 16.1 0.00 0.00 0.00 62 1014.9
20260504192054 25 136 4.8 16.1 0.00 0.00 0.00 61 1014.9
20260504191553 25 209 4.8 17.7 0.00 0.00 0.00 61 1014.8
20260504191054 25 142 4.8 17.7 0.00 0.00 0.00 63 1014.9
20260504190554 25 187 6.4 17.7 0.00 0.00 0.00 60 1015.1
20260504190059 25 252 6.4 14.5 0.00 0.00 0.00 62 1015.2
20260504185555 25 160 6.4 14.5 0.00 0.00 0.00 62 1015.2
20260504185055 25 140 6.4 14.5 0.00 0.00 0.00 58 1015.2
20260504184604 25 116 4.8 14.5 0.00 0.00 0.00 61 1015.4
20260504184055 25 255 6.4 12.9 0.00 0.00 0.00 58 1015.5
20260504183554 25 159 4.8 19.3 0.00 0.00 0.00 60 1015.3
20260504183058 25 230 6.4 19.3 0.00 0.00 0.00 60 1015.3
20260504182559 25 151 4.8 16.1 0.00 0.00 0.00 60 1015.4
20260504182054 25 262 6.4 16.1 0.00 0.00 0.00 61 1015.6
20260504181555 25 153 8.0 16.1 0.00 0.00 0.00 59 1015.7
20260504181055 25 145 4.8 16.1 0.00 0.00 0.00 61 1015.7
20260504180557 25 274 4.8 17.7 0.00 0.00 0.00 60 1015.7
20260504180055 25 135 4.8 17.7 0.00 0.00 0.00 59 1015.7
20260504175557 25 232 4.8 16.1 0.00 0.00 0.00 59 1015.8
20260504175054 25 164 4.8 16.1 0.00 0.00 0.00 58 1015.9
20260504174554 25 183 4.8 17.7 0.00 0.00 0.00 60 1015.8
20260504174054 25 88 4.8 17.7 0.00 0.00 0.00 60 1015.9
20260504173555 25 197 6.4 14.5 0.00 0.00 0.00 59 1016.1
20260504173054 25 139 4.8 11.3 0.00 0.00 0.00 58 1016.0
20260504172554 25 251 4.8 14.5 0.00 0.00 0.00 59 1016.1
20260504172055 25 133 4.8 16.1 0.00 0.00 0.00 61 1016.2
20260504171555 25 244 4.8 16.1 0.00 0.00 0.00 60 1016.1
20260504171056 25 267 3.2 12.9 0.00 0.00 0.00 60 1016.2
20260504170555 24 202 4.8 14.5 0.00 0.00 0.00 60 1016.2
20260504151055 23 112 6.4 17.7 0.00 0.00 0.00 62 1016.4
20260504150557 23 197 6.4 14.5 0.00 0.00 0.00 64 1016.5
20260504141100 22 114 6.4 12.9 0.00 0.00 0.00 67 1016.6
20260504140555 22 136 3.2 11.3 0.00 0.00 0.00 68 1016.6
20260504130557 18 0 0.0 0.0 0.00 0.00 0.00 80 1016.5
20260504110555 13 0 0.0 1.6 0.00 0.00 0.00 88 1016.1
20260504100554 14 0 0.0 0.0 0.00 0.00 0.00 87 1016.1